Temp
65 65 65 64 64 65 65 65 65 65 66 66 66 66 66 65 64 63 55 62 65 73 71 65 63 62 62 59 63 60 49 47 52 54 58 63 62 64 65 63 61 60 60 63 64
65 65 65 64 64 65 65 65 65 65 65 65 65 65 65 64 62 58 65 71 73 73 63 59 57 59 55 56 58 53 47 52 56 55 57 62 63 63 61 59 58 57 61 63 62
64 65 65 65 65 65 65 64 64 65 65 65 65 65 63 64 57 55 70 71 73 72 65 63 61 60 52 55 54 53 51 58 58 59 60 62 61 62 59 56 58 57 57 60 59
64 65 65 65 65 65 65 64 64 65 64 65 65 64 63 59 42 59 73 72 73 68 64 61 58 54 51 52 56 52 57 59 58 58 61 61 61 59 58 58 60 61 61 59 58
64 64 64 64 64 64 64 63 63 63 63 64 65 63 60 50 51 65 72 72 67 63 60 58 55 54 50 53 55 51 54 57 57 58 58 61 56 57 57 58 59 61 60 58 57
64 64 63 63 63 63 63 63 62 62 62 62 62 62 52 44 63 65 64 63 64 61 59 58 56 58 53 54 54 56 55 54 56 56 57 57 55 55 58 58 60 60 58 58 58
63 63 63 63 63 63 63 63 62 61 63 63 63 59 51 51 64 63 64 62 62 61 58 61 61 56 55 51 58 55 51 51 52 55 54 56 52 55 57 58 58 59 59 58 58
62 62 62 63 63 63 63 63 62 62 61 62 63 55 48 64 61 63 63 61 62 63 62 63 63 58 54 55 56 50 49 44 51 53 53 54 49 54 55 56 56 57 57 58 58
61 61 62 62 62 62 62 62 62 62 62 62 57 51 47 66 60 64 63 60 61 62 62 68 60 54 54 47 43 45 39 41 47 53 51 50 48 53 54 55 54 53 54 56 55
60 60 60 61 62 62 62 62 62 61 62 63 60 47 56 55 60 63 62 62 58 57 57 56 50 45 44 42 35 38 38 40 43 49 48 45 48 52 54 53 53 52 52 53 54
60 60 60 60 61 61 58 54 50 49 53 50 51 52 58 60 64 60 62 60 58 53 46 49 40 35 41 45 46 45 41 41 43 49 45 45 46 51 54 51 49 50 49 49 52
59 59 59 60 60 61 56 52 51 52 48 56 56 58 61 61 54 57 63 52 51 44 47 44 37 44 48 48 47 44 42 40 44 48 45 43 47 50 51 51 50 51 48 48 48
58 59 59 60 60 56 53 54 58 56 48 54 58 58 56 59 51 52 57 54 49 45 44 40 43 50 49 45 46 40 39 41 42 45 44 42 44 45 47 47 49 48 47 47 50
58 59 59 59 55 53 52 56 57 55 36 46 52 56 60 58 50 58 58 54 49 43 44 42 47 47 45 43 42 39 43 45 46 40 33 41 35 41 43 43 46 40 45 47 48
58 58 59 60 52 51 53 55 54 52 20 48 52 63 59 54 53 53 58 54 45 44 44 38 41 43 43 41 43 42 46 43 42 36 32 35 28 40 41 41 45 44 45 46 47
57 58 58 55 51 51 54 51 52 32 19 40 51 50 50 52 52 54 53 56 52 45 44 41 46 44 42 45 45 46 42 40 35 32 24 31 29 33 39 43 43 44 46 48 48
57 58 57 58 51 53 52 49 32 24 44 40 42 48 47 46 48 50 46 43 40 33 29 39 40 44 46 42 45 42 34 24 26 22 25 32 27 37 43 44 46 47 46 47 48
57 57 56 56 53 53 49 41 27 37 36 45 44 47 43 46 45 46 43 39 42 39 31 29 28 39 44 40 37 36 34 26 26 24 25 33 28 36 44 46 47 48 47 47 46
57 50 50 51 54 51 45 28 32 36 43 43 45 40 41 46 45 44 38 38 38 39 34 33 31 41 43 43 42 37 31 37 30 27 26 26 35 43 43 43 45 44 46 45 46
49 48 49 53 51 47 39 35 36 45 47 46 39 43 37 42 42 40 38 40 41 42 41 39 31 38 41 43 41 37 41 32 27 28 25 26 29 30 36 40 44 43 43 45 46
49 48 52 52 50 43 31 33 41 48 48 45 43 42 42 40 41 39 37 40 43 43 41 39 37 32 38 35 36 36 33 34 34 31 28 26 28 38 36 43 43 44 47 45 45
47 43 52 50 40 33 34 40 46 44 46 44 44 44 42 42 40 38 38 39 44 42 38 37 36 25 32 37 40 37 35 36 29 30 27 26 27 41 41 42 45 41 43 42 43
46 45 52 51 36 32 37 41 42 42 41 42 41 42 43 39 36 39 38 43 45 42 38 39 34 24 31 33 36 34 37 37 34 31 28 26 31 41 38 40 41 40 40 42 43
46 41 45 44 40 39 36 39 39 43 42 43 41 42 41 37 39 35 36 41 43 42 48 44 34 33 29 32 34 31 33 35 34 23 27 29 28 35 39 40 39 39 40 41 42
43 40 42 38 42 39 40 41 39 39 42 42 40 40 37 32 33 33 36 36 40 45 39 39 33 28 33 36 36 35 36 34 30 33 32 32 35 38 39 38 38 40 42 42 41
44 43 41 40 42 41 41 39 42 42 41 40 39 41 39 35 35 36 37 34 35 35 34 37 32 31 30 36 34 33 36 36 37 37 35 36 36 42 38 39 39 39 40 39 40
42 43 45 43 40 38 38 40 42 43 44 45 43 41 39 42 41 40 40 41 38 38 36 36 32 30 29 33 34 31 35 36 35 36 39 33 40 38 36 38 37 37 39 39 39
MSLP
1016.19 1015.72 1015.39 1015.31 1015.25 1015.06 1014.88 1014.95 1015.06 1015.07 1015.21 1015.30 1015.43 1015.59 1015.68 1015.88 1016.26 1016.58 1016.58 1015.72 1015.55 1015.25 1015.35 1015.37 1015.43 1015.41 1015.39 1015.32 1015.02 1015.21 1015.80 1015.65 1014.82 1014.09 1013.25 1013.00 1013.21 1013.61 1013.72 1014.28 1015.21 1015.85 1016.25 1016.26 1017.01
1016.19 1015.48 1015.04 1015.21 1015.07 1014.94 1014.76 1014.87 1014.99 1015.04 1015.14 1015.16 1015.34 1015.53 1015.74 1015.97 1016.22 1016.06 1015.43 1015.21 1015.14 1015.22 1015.42 1015.40 1015.44 1015.46 1015.51 1015.24 1015.14 1015.25 1015.61 1015.00 1014.27 1013.86 1013.43 1013.14 1013.17 1013.62 1014.19 1014.88 1015.87 1016.52 1016.86 1016.92 1017.42
1016.38 1015.80 1015.38 1015.17 1015.08 1014.93 1014.88 1014.86 1014.89 1014.92 1014.97 1015.01 1015.23 1015.45 1015.76 1016.00 1016.10 1015.14 1014.45 1014.87 1014.87 1015.07 1015.35 1015.53 1015.54 1015.49 1015.45 1015.20 1015.12 1015.11 1015.16 1014.63 1014.27 1013.93 1013.64 1013.35 1013.49 1013.77 1014.41 1015.23 1015.60 1016.43 1017.23 1017.56 1017.97
1016.57 1016.17 1015.79 1015.38 1015.13 1014.99 1015.07 1015.06 1014.95 1014.93 1014.80 1014.90 1015.20 1015.42 1015.83 1015.97 1015.56 1014.19 1013.56 1014.25 1014.73 1015.12 1015.35 1015.43 1015.51 1015.53 1015.41 1015.24 1014.90 1015.09 1014.81 1014.58 1014.33 1014.09 1013.85 1013.83 1013.84 1014.17 1014.57 1014.94 1015.03 1015.83 1016.70 1017.46 1018.05
1016.76 1016.54 1016.20 1015.75 1015.54 1015.41 1015.39 1015.36 1015.15 1014.93 1014.94 1014.86 1014.94 1015.57 1016.04 1016.00 1014.96 1014.09 1013.64 1014.18 1014.81 1015.26 1015.35 1015.57 1015.45 1015.27 1015.18 1014.97 1014.95 1014.99 1015.04 1014.92 1014.67 1014.38 1014.33 1014.29 1014.38 1014.49 1014.93 1015.21 1015.38 1016.00 1016.92 1017.46 1017.89
1017.09 1016.65 1016.36 1016.30 1016.13 1015.92 1015.70 1015.57 1015.42 1015.32 1015.38 1015.48 1015.74 1015.92 1016.04 1015.52 1014.20 1014.19 1014.32 1014.74 1014.96 1015.22 1015.26 1015.47 1015.27 1014.98 1014.92 1014.78 1014.80 1014.79 1015.18 1015.24 1014.98 1014.78 1014.61 1014.63 1014.83 1014.95 1015.25 1015.51 1016.00 1016.48 1016.97 1017.35 1017.68
1017.34 1016.90 1016.60 1016.48 1016.53 1016.11 1015.79 1015.58 1015.65 1015.78 1015.83 1015.85 1015.86 1015.97 1015.82 1014.86 1014.27 1014.39 1014.59 1014.63 1014.78 1015.02 1015.11 1015.12 1014.98 1014.87 1014.67 1014.60 1014.63 1015.14 1015.58 1015.56 1015.38 1015.23 1015.06 1014.99 1015.31 1014.99 1015.11 1015.77 1016.32 1016.74 1016.85 1017.18 1017.38
1017.34 1017.12 1016.79 1016.72 1016.64 1016.49 1016.26 1016.08 1015.85 1016.09 1016.26 1016.05 1015.85 1015.94 1015.53 1014.23 1014.19 1014.18 1014.43 1014.51 1014.63 1014.92 1014.97 1014.67 1014.68 1014.72 1014.67 1014.61 1015.01 1015.54 1015.86 1016.18 1015.63 1015.51 1015.36 1015.35 1015.05 1014.80 1015.26 1015.84 1016.47 1016.67 1016.89 1017.02 1017.22
1017.21 1017.09 1017.05 1016.84 1016.64 1016.58 1016.42 1016.32 1016.31 1016.04 1016.22 1016.22 1016.12 1016.06 1015.03 1014.12 1014.11 1013.87 1014.07 1014.36 1014.49 1014.77 1014.75 1014.52 1014.57 1014.85 1014.81 1015.31 1015.97 1016.30 1016.36 1016.34 1016.04 1015.74 1015.75 1015.74 1015.45 1015.07 1015.59 1016.13 1016.67 1016.81 1016.99 1017.24 1017.42
1017.14 1017.07 1017.09 1016.75 1016.58 1016.50 1016.39 1016.33 1016.29 1016.12 1015.97 1016.02 1016.00 1016.05 1014.77 1014.18 1013.80 1013.83 1014.03 1014.27 1014.54 1014.73 1014.83 1014.73 1015.30 1015.65 1016.07 1016.25 1016.70 1016.74 1016.51 1016.33 1016.17 1016.05 1016.18 1016.14 1015.76 1015.68 1015.90 1016.38 1016.68 1016.94 1017.21 1017.65 1017.88
1016.93 1016.91 1016.88 1016.49 1016.28 1016.43 1016.59 1016.68 1016.96 1016.76 1016.36 1015.66 1015.51 1014.96 1014.22 1014.09 1013.80 1013.97 1014.03 1014.45 1014.64 1014.95 1015.25 1015.38 1016.28 1016.58 1016.69 1016.52 1016.54 1016.53 1016.52 1016.49 1016.38 1016.33 1016.56 1016.42 1016.30 1015.92 1015.98 1016.49 1016.89 1017.29 1017.57 1017.94 1018.42
1016.73 1016.73 1016.52 1016.22 1016.31 1016.40 1016.73 1016.67 1016.23 1016.43 1015.88 1015.09 1014.96 1014.47 1014.01 1013.89 1014.10 1014.20 1014.05 1014.86 1014.94 1015.46 1015.69 1016.32 1016.82 1016.92 1016.76 1016.63 1016.63 1016.75 1016.79 1016.93 1016.86 1016.79 1017.13 1017.00 1016.47 1015.82 1015.86 1016.01 1016.37 1017.05 1017.85 1018.34 1018.80
1016.52 1016.50 1016.21 1016.02 1016.37 1016.62 1016.64 1016.33 1016.08 1016.07 1015.80 1014.64 1014.26 1014.04 1013.93 1013.94 1014.34 1014.50 1014.60 1014.74 1015.15 1015.89 1016.47 1016.98 1017.40 1017.06 1016.92 1017.11 1017.21 1017.50 1017.31 1017.23 1017.23 1017.41 1017.63 1017.77 1017.10 1016.04 1015.91 1016.09 1016.46 1016.92 1017.64 1018.48 1018.77
1016.50 1016.20 1015.94 1015.86 1016.60 1016.31 1016.51 1016.38 1016.18 1016.09 1016.07 1015.39 1014.15 1013.60 1013.74 1013.87 1014.39 1014.39 1014.50 1014.82 1015.45 1016.41 1017.14 1017.81 1017.65 1017.35 1017.33 1017.85 1017.96 1017.88 1017.88 1017.70 1018.01 1018.64 1019.01 1018.85 1018.28 1016.64 1016.32 1016.55 1016.99 1017.62 1018.10 1018.68 1019.14
1016.26 1015.96 1015.81 1015.69 1016.04 1016.40 1016.82 1016.58 1016.49 1016.60 1016.55 1015.81 1014.37 1013.53 1013.60 1014.11 1014.53 1014.38 1014.32 1014.66 1015.81 1016.71 1017.47 1018.58 1018.31 1018.00 1018.06 1018.41 1018.33 1018.45 1018.47 1018.73 1019.20 1019.90 1020.18 1020.10 1020.00 1017.06 1016.82 1016.94 1017.28 1017.91 1018.43 1018.87 1019.14
1016.04 1015.77 1015.59 1016.03 1016.26 1016.43 1016.24 1016.28 1016.71 1017.26 1017.26 1016.08 1014.80 1014.17 1014.26 1014.32 1014.45 1014.48 1014.47 1014.82 1016.13 1017.23 1017.92 1018.75 1018.61 1018.64 1018.72 1018.72 1018.65 1018.86 1019.41 1020.03 1020.73 1021.45 1022.03 1021.14 1020.95 1018.11 1017.18 1016.65 1016.96 1017.63 1018.35 1018.80 1019.14
1016.16 1015.82 1015.45 1015.67 1016.13 1016.22 1016.31 1016.67 1017.32 1017.43 1017.52 1016.49 1015.56 1014.89 1014.79 1014.95 1014.91 1014.98 1015.58 1016.21 1016.99 1017.98 1019.41 1019.35 1019.45 1019.21 1019.01 1019.08 1019.18 1019.61 1020.51 1021.60 1022.84 1022.97 1022.88 1021.79 1021.39 1017.94 1016.79 1016.55 1016.69 1017.28 1018.06 1018.48 1018.86
1016.22 1016.23 1015.83 1015.75 1016.05 1016.17 1016.67 1017.37 1017.96 1018.28 1017.56 1016.56 1015.95 1015.34 1015.24 1015.26 1015.45 1015.64 1016.27 1017.15 1017.39 1017.90 1019.39 1019.71 1020.25 1019.76 1019.66 1019.67 1019.75 1020.29 1020.95 1021.64 1022.62 1023.20 1022.75 1021.95 1020.53 1017.40 1016.75 1016.66 1016.79 1017.06 1017.75 1018.51 1019.19
1016.03 1016.32 1016.46 1016.20 1015.88 1016.23 1017.15 1017.96 1018.56 1018.18 1017.62 1016.88 1016.12 1015.87 1015.67 1015.49 1015.66 1016.17 1017.08 1017.63 1017.85 1018.00 1018.44 1019.23 1019.99 1020.12 1020.03 1020.04 1020.31 1020.60 1021.06 1021.48 1022.33 1023.26 1022.89 1021.30 1019.59 1017.51 1016.99 1017.12 1017.30 1017.61 1018.30 1019.02 1019.52
1016.38 1016.70 1016.60 1016.18 1016.07 1016.52 1017.59 1019.20 1018.95 1018.35 1017.78 1017.22 1016.51 1015.84 1015.92 1015.84 1016.02 1016.42 1017.22 1017.71 1017.83 1017.84 1017.93 1018.42 1019.73 1020.44 1020.41 1020.37 1020.48 1020.57 1021.09 1021.64 1022.46 1023.12 1022.93 1021.50 1020.30 1018.23 1017.79 1017.90 1017.98 1018.31 1018.85 1019.38 1019.63
1016.35 1016.81 1016.53 1016.30 1016.48 1017.10 1019.05 1019.42 1018.94 1018.26 1017.89 1017.54 1017.06 1016.54 1016.16 1016.15 1016.25 1016.87 1017.63 1018.11 1018.16 1018.03 1017.98 1018.19 1018.89 1021.00 1020.84 1020.72 1020.54 1021.01 1021.10 1021.64 1022.21 1022.54 1022.71 1022.11 1020.09 1018.48 1018.13 1018.15 1018.50 1018.99 1019.29 1019.59 1019.89
1016.66 1017.22 1016.20 1016.18 1017.29 1018.61 1019.09 1018.65 1018.32 1018.08 1017.77 1017.62 1017.28 1017.23 1017.04 1017.01 1017.06 1017.45 1017.92 1018.38 1018.48 1018.46 1018.49 1018.81 1019.50 1020.97 1020.89 1020.69 1020.61 1020.68 1020.91 1021.30 1022.36 1022.84 1022.84 1022.39 1019.94 1018.67 1018.44 1018.59 1018.87 1019.68 1020.02 1020.30 1020.38
1017.49 1017.30 1016.37 1016.25 1018.26 1019.51 1019.12 1018.72 1018.42 1018.08 1017.86 1017.51 1017.53 1017.54 1017.34 1017.69 1017.99 1018.18 1018.64 1018.96 1018.90 1018.98 1019.19 1019.23 1019.90 1020.69 1020.98 1021.17 1020.87 1020.80 1020.80 1021.14 1021.88 1022.36 1022.48 1022.19 1019.88 1019.08 1019.21 1019.52 1019.97 1020.35 1020.70 1020.92 1020.84
1017.75 1018.31 1017.76 1017.95 1018.73 1018.93 1019.06 1018.87 1018.55 1018.28 1018.06 1017.82 1017.54 1017.30 1017.33 1017.78 1017.97 1018.49 1018.92 1019.16 1019.22 1019.28 1019.43 1019.50 1020.28 1020.69 1020.77 1020.52 1020.44 1020.91 1020.88 1021.24 1021.63 1022.37 1022.02 1020.90 1019.82 1019.65 1019.81 1020.20 1020.69 1021.08 1021.10 1021.12 1021.12
1018.36 1019.61 1019.68 1019.52 1019.35 1018.94 1018.58 1018.44 1018.42 1018.31 1018.12 1018.03 1017.89 1017.89 1017.99 1018.20 1018.37 1018.65 1018.98 1019.33 1019.53 1019.69 1019.80 1020.07 1020.64 1020.71 1020.54 1020.31 1020.19 1020.14 1020.34 1020.71 1021.06 1020.53 1020.82 1019.66 1019.79 1019.35 1019.78 1020.47 1020.98 1021.24 1021.39 1021.51 1021.72
1019.11 1019.72 1019.76 1019.55 1019.52 1019.20 1018.79 1018.30 1018.15 1018.16 1018.22 1018.18 1018.18 1018.15 1018.18 1018.45 1018.73 1018.83 1019.19 1019.61 1019.68 1020.17 1020.35 1020.75 1021.02 1021.19 1021.00 1020.28 1020.29 1020.05 1019.59 1019.82 1019.77 1019.80 1019.73 1019.64 1019.37 1019.00 1019.87 1020.51 1021.17 1021.61 1021.74 1022.02 1022.24
1019.76 1019.61 1019.53 1019.71 1019.41 1019.46 1019.07 1018.68 1018.37 1018.19 1018.21 1018.07 1018.12 1018.30 1018.39 1018.51 1018.65 1018.90 1019.22 1019.48 1019.75 1020.17 1020.78 1021.16 1021.46 1021.94 1021.53 1020.91 1020.47 1019.75 1017.96 1018.27 1018.69 1018.73 1018.96 1019.48 1018.74 1019.49 1020.51 1020.98 1021.44 1021.80 1021.97 1022.21 1022.38
Wind_Speed
15 14 10 7 6 4 5 6 6 7 8 8 9 11 9 7 10 4 5 8 6 9 4 4 1 1 1 2 3 3 4 3 5 6 4 4 5 1 2 6 4 4 4 3 12
16 17 8 4 4 4 2 5 5 7 9 9 9 10 8 11 7 10 8 11 12 6 3 1 2 1 0 3 1 4 4 8 2 1 4 4 5 6 4 3 4 4 6 9 9
15 15 12 9 6 6 6 5 3 3 6 6 8 8 11 9 5 7 16 19 7 6 1 1 2 2 1 2 3 4 5 5 2 1 2 4 3 3 9 3 6 8 9 7 6
12 14 14 11 10 9 7 8 6 3 5 6 7 9 14 3 6 3 11 17 11 4 2 2 2 5 3 5 4 5 1 2 2 2 2 5 2 4 2 4 2 10 13 8 8
9 13 11 8 8 11 10 10 10 8 8 6 9 16 6 3 6 3 9 13 4 4 5 3 3 5 3 5 5 2 2 2 2 4 4 3 1 4 4 4 5 12 9 9 8
7 8 9 7 10 10 8 7 7 7 12 13 9 4 1 4 3 5 7 5 4 4 5 4 3 2 2 4 6 6 4 3 1 1 3 4 1 1 5 6 7 9 10 9 9
8 6 5 5 6 7 8 11 10 9 10 8 5 2 3 8 5 3 6 6 4 4 3 4 3 2 2 3 5 7 6 2 1 2 1 2 3 7 5 7 9 9 8 8 10
9 8 4 1 4 2 3 13 14 10 7 6 6 3 4 4 2 1 5 3 2 4 3 7 6 3 2 2 4 5 5 4 2 2 1 3 8 1 8 9 8 8 7 8 6
8 8 8 4 3 5 3 2 4 2 1 3 3 3 3 6 2 3 4 3 5 4 5 3 2 1 4 6 5 6 4 3 3 4 1 2 5 2 6 7 8 7 7 6 4
6 7 8 6 5 4 6 4 5 6 2 3 2 2 3 3 1 2 4 4 2 3 1 2 5 4 4 5 6 4 3 2 4 4 2 2 8 4 5 6 9 8 7 6 6
7 5 6 8 6 3 5 3 3 1 2 5 2 2 2 1 2 1 2 4 2 2 4 1 8 3 3 4 4 1 2 3 1 1 2 6 7 9 7 5 8 8 5 7 7
8 6 5 7 5 1 1 2 3 1 3 7 5 4 2 2 4 3 4 4 3 3 2 7 3 2 2 1 2 3 4 2 1 1 2 2 11 9 6 7 8 9 7 8 6
7 6 6 4 1 3 4 3 2 0 2 4 2 3 1 2 2 1 2 4 4 3 3 7 1 2 1 6 4 3 3 5 3 2 0 4 9 3 2 2 4 3 5 5 11
7 6 4 2 3 1 1 1 3 1 5 8 7 6 3 3 3 2 2 3 5 7 5 5 4 1 4 5 1 2 2 2 6 4 4 3 6 5 1 2 2 4 7 8 7
7 5 6 1 3 2 2 2 1 4 7 6 5 2 2 4 3 2 2 6 4 3 5 2 3 5 6 1 1 2 2 3 3 5 4 1 5 9 1 4 6 7 8 8 8
9 4 4 3 2 2 1 2 3 8 2 4 2 2 3 3 3 3 4 7 5 6 8 3 2 4 2 1 2 2 4 7 6 4 3 1 6 8 4 3 2 4 6 9 9
9 5 4 2 2 0 1 4 7 8 4 3 2 2 3 4 4 4 4 5 2 6 4 5 4 3 4 4 4 6 6 4 5 5 7 2 3 11 4 1 2 9 9 9 8
7 7 4 2 1 2 3 6 9 3 1 2 2 1 4 1 2 3 3 2 4 4 4 6 5 2 4 3 4 2 5 7 7 4 5 2 7 8 4 0 2 4 7 6 6
3 2 2 3 2 4 6 7 4 2 1 3 2 3 2 1 3 4 3 1 1 2 5 5 2 2 2 2 2 3 1 2 7 4 3 3 8 7 2 2 2 3 6 6 6
3 2 2 1 1 5 7 2 2 3 4 2 0 1 3 2 2 3 2 2 1 0 1 4 6 1 1 1 1 1 2 4 4 3 4 5 6 8 4 3 2 4 5 5 5
4 4 3 2 3 7 6 2 2 3 2 2 4 2 1 2 3 2 2 2 3 4 3 1 4 3 2 4 6 1 0 3 3 4 4 2 8 6 4 5 6 5 6 4 4
2 4 1 3 6 2 3 4 3 1 4 2 2 4 4 7 4 2 3 1 4 1 2 1 5 3 1 1 1 1 2 4 6 4 0 3 9 4 4 2 6 7 7 6 5
3 1 2 4 4 4 2 1 0 1 1 2 2 3 3 3 2 3 3 2 5 4 2 1 1 3 6 5 3 4 5 4 5 3 6 6 8 2 5 7 5 8 6 5 6
4 4 6 6 1 6 2 3 2 2 2 2 1 1 3 3 4 2 1 1 3 2 2 2 2 4 7 3 4 3 4 4 4 3 4 8 2 4 5 6 5 6 6 6 7
4 1 4 4 4 2 3 1 1 4 1 1 3 2 1 2 2 3 2 0 2 2 2 4 4 2 5 6 4 5 5 8 9 7 8 4 8 7 6 7 6 5 5 7 8
4 2 2 1 3 4 4 3 3 2 1 2 1 2 1 1 1 5 4 3 3 1 1 3 1 2 4 3 5 7 8 10 12 6 11 6 11 5 5 7 6 6 6 7 6
2 2 4 2 1 2 2 2 3 2 3 3 3 1 1 3 1 1 2 1 0 5 4 2 3 3 4 4 5 9 8 12 6 4 8 10 8 8 5 7 6 6 6 6 5
Wind_Direction
354 338 322 328 328 313 260 232 251 221 235 239 225 213 187 168 128 151 225 229 193 266 269 298 230 266 217 259 204 121 77 183 199 170 210 145 119 37 61 93 65 8 141 196 127
0 2 31 352 351 336 287 213 232 235 235 235 221 203 173 143 172 223 234 240 256 237 258 259 223 126 283 221 205 105 132 207 214 229 184 131 123 151 106 107 55 42 32 102 121
17 20 48 72 55 70 91 108 125 188 219 217 209 195 156 156 178 239 216 227 225 195 207 13 311 185 224 153 187 161 181 193 212 319 295 117 106 136 126 228 178 179 161 137 136
29 24 34 65 67 85 84 79 80 141 186 202 208 178 161 190 178 270 274 200 206 173 119 327 210 151 191 172 206 139 313 192 177 355 117 137 113 102 178 184 208 162 159 149 165
39 27 27 57 75 79 75 84 76 87 79 102 156 145 145 210 256 255 74 166 129 162 165 203 187 169 193 198 129 171 147 43 71 77 77 116 107 163 156 175 106 129 151 170 181
8 22 22 20 75 85 82 65 80 73 88 88 82 48 186 184 262 174 137 126 195 182 161 190 210 218 270 211 160 176 110 115 332 64 46 126 228 256 204 156 130 148 180 187 193
344 353 24 38 66 95 91 79 94 86 99 81 47 131 49 213 113 200 172 180 180 175 165 204 247 239 187 132 141 139 93 44 299 222 152 147 246 232 179 155 163 185 192 193 214
332 321 321 6 129 108 92 79 101 116 96 351 11 71 232 260 273 288 175 197 185 208 242 255 215 243 207 173 70 82 68 120 274 186 189 118 262 278 165 154 192 196 193 201 210
330 321 317 309 233 205 220 118 95 133 164 306 18 90 261 330 236 231 142 156 153 202 241 254 182 191 41 94 51 13 165 180 307 215 126 171 258 279 167 176 200 211 210 200 200
336 329 322 304 282 238 220 231 269 307 212 217 269 30 276 218 156 98 175 143 149 150 158 133 52 70 37 73 182 181 172 198 210 229 178 214 261 297 215 191 213 216 223 194 164
323 335 332 291 281 288 115 66 8 23 3 232 315 274 65 360 36 42 135 112 119 72 131 70 75 139 182 174 137 181 183 173 296 221 161 243 272 250 239 235 234 233 209 160 147
326 321 309 291 289 240 87 240 231 180 323 199 247 254 138 139 85 27 60 144 136 146 109 35 97 234 290 327 46 25 171 157 339 104 105 345 272 259 233 231 204 203 176 159 130
324 320 301 288 249 133 193 269 357 77 109 332 137 128 126 113 97 176 129 181 135 86 90 120 169 314 119 45 99 58 185 168 174 102 322 329 295 299 30 64 73 84 148 143 159
326 335 306 110 105 200 224 67 3 21 71 327 350 356 48 105 67 219 218 182 51 131 114 90 321 77 84 81 349 138 300 106 108 92 217 64 269 291 176 116 108 98 152 163 164
316 337 335 212 158 94 266 354 359 51 65 291 320 261 25 80 162 5 198 42 105 92 101 234 28 66 75 92 305 142 26 61 89 98 58 328 72 267 320 211 217 190 184 187 191
303 350 355 82 49 178 200 59 60 45 315 347 319 359 56 18 33 326 59 52 140 71 35 103 76 60 103 62 65 115 64 42 54 70 26 268 126 281 219 210 190 186 191 188 188
308 327 83 128 198 174 96 54 37 83 293 331 359 23 82 17 42 56 31 25 114 86 15 13 354 355 53 79 26 66 56 3 359 7 216 282 49 245 252 303 243 189 186 192 181
317 316 353 109 80 70 58 52 69 212 261 309 310 357 92 23 36 56 80 47 31 68 107 135 331 42 352 60 163 117 142 154 201 196 254 46 237 258 221 129 318 174 177 161 168
28 339 40 302 134 97 73 52 186 232 337 350 324 83 26 53 126 92 62 165 262 4 131 133 14 319 43 24 84 166 200 161 103 8 44 239 287 303 223 327 12 167 150 169 188
81 42 309 272 117 71 75 84 353 348 339 336 326 175 150 190 121 107 164 253 271 250 197 191 89 356 338 23 50 148 163 61 358 165 253 293 282 242 248 195 186 147 162 211 239
64 56 277 30 55 50 103 142 22 325 356 337 352 342 104 143 126 109 179 327 5 326 350 104 98 278 51 202 179 99 247 65 123 144 174 281 265 219 222 186 188 182 199 229 278
96 45 288 97 46 21 122 170 190 298 13 356 69 17 20 12 29 78 153 359 338 300 102 14 119 150 178 304 360 210 200 150 124 226 130 142 274 331 152 110 126 71 72 59 42
60 260 331 81 67 2 321 42 44 78 147 100 64 74 23 57 67 75 60 341 10 39 72 47 2 56 350 356 356 217 199 161 122 97 204 143 260 27 89 79 70 100 76 56 39
82 17 336 42 138 124 66 0 353 320 326 312 209 141 120 56 32 116 71 347 15 67 79 86 114 162 187 200 130 207 207 197 134 120 185 231 249 199 181 132 95 86 86 73 54
27 174 173 329 344 81 130 113 16 338 355 321 353 31 55 97 50 145 153 182 11 9 65 112 196 145 240 231 214 219 194 186 195 197 181 241 209 207 195 153 145 128 94 66 46
105 102 9 158 324 340 337 178 157 201 68 337 22 307 12 159 241 207 154 199 208 347 124 16 286 89 304 302 223 265 235 215 226 223 250 260 264 202 132 115 115 114 94 74 54
333 4 105 285 42 65 251 297 271 163 201 185 164 127 227 183 166 197 116 120 264 151 172 106 118 74 276 359 347 296 234 197 193 212 205 218 234 156 144 135 143 132 113 104 79